sat.trackr.live / text

‹ back to catalog

STARLINK-34394

NORAD 64669 · 2025-139F

PAYLOAD ACTIVE UNKNOWN

§ Identity

Operator
Country
US
Launch date
2025-06-28
Launch site
AFETR
Launch vehicle
Mass (kg)
RCS (m²)

Purposes: comms

External: N2YO · Heavens-Above · Gunter

§ Orbital elements

Epoch: 2026-05-25T05:26:59.960832Z

Period
93.85 min
Inclination
53.1596°
Eccentricity
0.0000758
Mean motion
15.34400153 rev/d
Perigee alt
462.2 km
Apogee alt
463.2 km
Semi-major
6,840.8 km
B*
8.1700e-4
RAAN
130.7329°
Arg perigee
76.0952°
Mean anomaly
284.0135°
Rev number
5,201

§ Raw data

STARLINK-343941 64669U 25139F   26145.22708288  .00027328  00000+0  81700-3 0  99962 64669  53.1596 130.7329 0000758  76.0952 284.0135 15.34400153 52013

JSON: /api/v1/satellites/64669 · /tle

For live sub-satellite position, see the globe view (requires WebGL).

§ Visibility from observer

Set your observer location to see the next 7 days of passes ≥ 10°. The values pass through the URL so the page stays shareable.

No JS? Fill the form by hand. The geolocation button needs JavaScript.